Location: Arbon
(43.0005°N, 0.7472°E)
Time: 09:24:34
(UTC+00:00)

SR - Pass Details

Date: 30 November 2020
Orbit: 575 x 880 km, 66.7° (Epoch: 21 January)

Event Time Altitude Azimuth Distance (km) Brightness Sun altitude
Rises 17:00:07 0° 180° (S) 2,783 ? -6.8°
Reaches altitude 10° 17:02:33 10° 167° (SSE) 1,907 ? -7.2°
Maximum altitude 17:06:07 27° 110° (ESE) 1,185 ? -7.8°
Drops below altitude 10° 17:09:54 10° 53° (NE) 2,019 ? -8.4°
Enters shadow 17:09:58 10° 53° (NE) 2,040 ? -8.5°
Sets 17:12:32 0° 41° (NE) 2,982 - -8.9°
